{"data":{"norad_id":59694,"intl_designator":"2024-086N","name":"STARLINK-32107","alt_names":[],"object_type":"PAYLOAD","status":"ACTIVE","operator":null,"country":"US","launch_date":"2024-05-08","launch_site_code":"AFETR","launch_vehicle":null,"mission":null,"orbit_class":"UNKNOWN","rcs_meters":null,"size_class":null,"mass_kg":null,"dimensions":null,"purposes":["comms"],"wikipedia_slug":null,"has_3d_model":false,"image_url":null,"decayed_at":null,"tle_current":{"epoch":"2026-09-21T16:22:06.946176Z","epoch_age_seconds":69208,"freshness":"FRESH","line1":"1 59694U 24086N   26264.68202484  .00000428  00000+0  25103-4 0  9995","line2":"2 59694  43.0061  33.2911 0001733 270.3865  89.6789 15.27579594134080","mean_motion":15.27579594,"eccentricity":0.0001733,"inclination_deg":43.0061,"raan_deg":33.2911,"arg_perigee_deg":270.3865,"mean_anomaly_deg":89.6789,"bstar":2.5103e-5,"rev_number":13408,"period_min":94.266773767862,"perigee_km":481.86126798885,"apogee_km":484.23935551111,"semimajor_km":6861.18731175,"source":"CELESTRAK","updated_at":"2026-09-22T09:00:49.034439Z"}}}